AirNav  
 
 1088 users online  

36OH Wright's Field Airport
Conesville, Ohio, USA

GOING TO CONESVILLE?


FAA INFORMATION EFFECTIVE 29 MARCH 2018

Location

FAA Identifier: 36OH
Lat/Long: 40-11-25.2530N / 081-58-26.4860W
40-11.420883N / 081-58.441433W
40.1903481 / -81.9740239
(estimated)
Elevation: 770 ft. / 235 m (estimated)
Variation: 06W (1990)
From city: 5 miles W of CONESVILLE, OH
Time zone: UTC -4 (UTC -5 during Standard Time)
Zip code: 43811

Airport Operations

Airport use: Private use. Permission required prior to landing
Activation date: 10/1994
Control tower: no
ARTCC: INDIANAPOLIS CENTER
FSS: CLEVELAND FLIGHT SERVICE STATION
Attendance: UNATNDD
Wind indicator: yes
Segmented circle: no

Airport Communications

WX AWOS-3 at I40 (9 nm NE): 118.875 (740-295-7370)
WX ASOS at ZZV (15 nm S): 111.4 (740-453-8139)

Nearby radio navigation aids

VOR radial/distance  VOR name  Freq  Var
ZZVr352/15.4ZANESVILLE VOR/DME111.4006W
TVTr159/17.5TIVERTON VOR/DME116.5003W
CTWr271/22.9NEWCOMERSTOWN VOR/DME111.8007W
APEr091/28.3APPLETON VORTAC116.7006W

 
NDB name  Hdg/Dist  Freq  Var  ID
NEWARK072/24.552406WHEH .... . ....

Airport Services

Runway Information

Runway 6/24

Dimensions: 1800 x 80 ft. / 549 x 24 m
Surface: turf
RUNWAY 6  RUNWAY 24
Traffic pattern: leftright
Obstructions: 115 ft. pline, 1800 ft. from runway
180 FT HILL 75 FT S.
10 ft. tank, 30 ft. from runway

Airport Ownership and Management from official FAA records

Ownership: Privately-owned
Owner: CARL WRIGHT
16139 CR6
CONESVILLE, OH 43811
Phone 614-829-2409
Manager: CARL WRIGHT
16139 CR6
CONESVILLE, OH 43811
Phone 614-829-2409

Airport Operational Statistics

Aircraft based on the field: 1
Single engine airplanes: 1
    

Instrument Procedures

There are no published instrument procedures at 36OH.

Some nearby airports with instrument procedures:

I40 - Richard Downing Airport (9 nm NE)
KZZV - Zanesville Municipal Airport (15 nm S)
10G - Holmes County Airport (21 nm N)
KCDI - Cambridge Municipal Airport (22 nm SE)
KVTA - Newark-Heath Airport (24 nm SW)
 
Loc | Ops | Rwys | IFR | FBO | Links
Com | Nav | Svcs | Stats | Notes

AirNav Hotels Sweepstakes
 
Area around 36OH (Wright's Field Airport)
 
Road maps at: MapQuest Bing Google
 
Aerial photo
No photo
 
Sectional chart

 
Airport distance calculator
Flying to Wright's Field Airport? Find the distance to fly.

From to 36OH

Sunrise and sunset
Times for 19-Apr-2018
 Local
(UTC-4)
 Zulu
(UTC)
Morning civil twilight06:1610:16
Sunrise06:4510:45
Sunset20:0900:09
Evening civil twilight20:3800:38

Current date and time
Zulu (UTC)  20-Apr-2018 00:15:04
Local (UTC-4)  19-Apr-2018 20:15:04
 
METAR
KZZV 
15nm S 
192353Z AUTO 30006KT 10SM FEW060 09/M02 A3020 RMK AO2 SLP232 T00891017 10100 20050 53013
KCDI 
22nm SE 
192355Z AUTO 27005KT 10SM BKN065 09/M02 A3021 RMK AO2 T00881016 10104 20043
KVTA 
25nm SW 
192354Z AUTO 31008KT 10SM FEW055 09/M02 A3021 RMK AO2 SLP234 T00891017 10106 20061 53010
K4I3 
27nm W 
192357Z AUTO 29012KT 10SM CLR 09/M02 A3021 RMK AO2
TAF
KZZV 
15nm S 
192015Z 1920/2018 31008G16KT P6SM SCT040 FM201000 32004KT P6SM SKC
NOTAMs
Click for the latest NOTAMs
NOTAMs are issued by the DoD/FAA and will open in a separate window not controlled by AirNav.

 

 
 

Would you like to see your business listed on this page?

 If your business provides an interesting product or service to pilots, flight crews, aircraft, or users of the Wright's Field Airport, you should consider listing it here.  To start the listing process, click on the button below
 
Add a business
 

Other Pages about Wright's Field Airport

Update a link
 
Copyright © AirNav, LLC. All rights reserved. Privacy Policy  Contact